Weather History for Poplar Bluff, MO

Change the Weather History Date:

Tuesday, February 5, 2013

  Actual Average Record
Temperature  
Mean Temperature 44 °F -  
Max Temperature 57 °F 46 °F 74 °F (1943)
Min Temperature 30 °F 24 °F -2 °F (1936)
Degree Days  
Heating Degree Days 22    
Moisture  
Dew Point 35 °F    
Average Humidity 87    
Maximum Humidity 100    
Minimum Humidity 59    
Precipitation  
Precipitation 0.00 in - - ()
Sea Level Pressure  
Sea Level Pressure 30.00 in    
Wind  
Wind Speed 2 mph (West)    
Max Wind Speed 13 mph    
Max Gust Speed -    
Visibility 5 miles    
Events Fog    
Averages and records for this station are not official NWS values.
T = Trace of Precipitation, MM = Missing Value Source: NWS Daily Summary

Daily Weather History Graph

Daily Weather History Graph

Search for Another Location

Airport:

Trip Planner

Search our weather history database for the weather conditions in past years. The results will help you decide how hot, cold, wet, or windy it might be!

Date:

Astronomy

Feb. 05, 2013 Rise Set
Actual Time 6:59 AM CST 5:31 PM CST
Civil Twilight 6:32 AM CST 5:58 PM CST
Nautical Twilight 6:01 AM CST 6:29 PM CST
Astronomical Twilight 5:31 AM CST 6:59 PM CST
Moon 2:38 AM CST (2/5) 12:52 PM CST (2/5)
Length of Visible Light 11h 25m
Length of Day
10h 31m
Waning Crescent, 26% of the Moon is Illuminated
Feb 5
Waning Crescent
Feb 10
New
Feb 17
First Quarter
Feb 25
Full
Mar 4
Last Quarter

Hourly Weather History & Observations

Time (CST) Temp. Windchill Dew Point Humidity Pressure Visibility Wind Dir Wind Speed Gust Speed Precip Events Conditions
12:07 AM 35.6 °F - 33.8 °F 93% 29.93 in 5.0 mi Calm Calm - N/A   Overcast
12:41 AM 35.6 °F - 33.8 °F 93% 29.92 in 2.0 mi Calm Calm - N/A   Mostly Cloudy
12:46 AM 35.6 °F - 33.8 °F 93% 29.92 in 1.8 mi Calm Calm - N/A   Mostly Cloudy
12:53 AM 34.0 °F - 33.1 °F 96% 29.94 in 0.5 mi Calm Calm - N/A Fog Fog
12:57 AM 35.6 °F - 33.8 °F 93% 29.93 in 0.2 mi Calm Calm - N/A Fog Fog
1:11 AM 35.6 °F 31.7 °F 33.8 °F 93% 29.93 in 0.5 mi NW 4.6 mph - N/A Fog Fog
1:29 AM 35.6 °F 32.8 °F 33.8 °F 93% 29.94 in 2.0 mi NNW 3.5 mph - N/A   Overcast
1:38 AM 35.6 °F - 33.8 °F 93% 29.94 in 5.0 mi Calm Calm - N/A   Overcast
1:53 AM 36.0 °F - 34.0 °F 93% 29.96 in 6.0 mi Calm Calm - N/A   Overcast
2:41 AM 37.4 °F 32.8 °F 35.6 °F 93% 29.95 in 6.0 mi NE 5.8 mph - N/A   Scattered Clouds
2:53 AM 37.0 °F 32.4 °F 34.0 °F 89% 29.96 in 10.0 mi ENE 5.8 mph - N/A   Mostly Cloudy
3:25 AM 35.6 °F 32.8 °F 32.0 °F 87% 29.93 in 10.0 mi ENE 3.5 mph - N/A   Scattered Clouds
3:53 AM 36.0 °F - 30.9 °F 82% 29.95 in 10.0 mi Calm Calm - N/A   Clear
4:53 AM 33.1 °F - 30.0 °F 89% 29.96 in 7.0 mi Calm Calm - N/A   Clear
5:53 AM 32.0 °F - 28.9 °F 88% 29.98 in 9.0 mi Calm Calm - N/A   Clear
6:53 AM 30.9 °F 27.5 °F 28.0 °F 89% 30.00 in 6.0 mi North 3.5 mph - N/A   Clear
7:53 AM 33.1 °F 30.0 °F 28.9 °F 85% 30.03 in 6.0 mi NNW 3.5 mph - N/A   Clear
8:53 AM 37.0 °F - 30.0 °F 76% 30.04 in 8.0 mi Calm Calm - N/A   Clear
9:53 AM 39.0 °F - 33.1 °F 79% 30.04 in 8.0 mi Calm Calm - N/A   Clear
10:53 AM 42.1 °F 37.1 °F 35.1 °F 76% 30.04 in 9.0 mi SSW 8.1 mph - N/A   Clear
11:53 AM 46.0 °F 42.5 °F 37.9 °F 73% 30.01 in 10.0 mi Variable 6.9 mph - N/A   Clear
12:53 PM 50.0 °F - 39.9 °F 68% 29.98 in 10.0 mi South 9.2 mph - N/A   Clear
1:53 PM 53.1 °F - 39.9 °F 61% 29.96 in 10.0 mi SSW 12.7 mph - N/A   Clear
2:53 PM 55.9 °F - 42.1 °F 60% 29.95 in 10.0 mi SSW 11.5 mph - N/A   Clear
3:53 PM 57.0 °F - 43.0 °F 59% 29.95 in 10.0 mi SSW 10.4 mph - N/A   Clear
4:53 PM 54.0 °F - 45.0 °F 72% 29.96 in 10.0 mi South 9.2 mph - N/A   Clear
5:53 PM 48.9 °F - 43.0 °F 80% 29.97 in 10.0 mi SSW 6.9 mph - N/A   Clear
6:53 PM 45.0 °F - 42.1 °F 90% 30.01 in 9.0 mi Calm Calm - N/A   Clear
7:50 PM 42.8 °F - 39.2 °F 87% 30.01 in 2.0 mi Calm Calm - N/A   Clear
7:53 PM 42.1 °F - 39.9 °F 92% 30.03 in 2.0 mi Calm Calm - N/A   Clear
8:00 PM 41.0 °F - 39.2 °F 93% 30.02 in 1.8 mi Calm Calm - N/A   Clear
8:09 PM 41.0 °F 39.0 °F 39.2 °F 93% 30.02 in 3.0 mi South 3.5 mph - N/A   Clear
8:22 PM 39.2 °F 37.0 °F 37.4 °F 93% 30.02 in 1.8 mi South 3.5 mph - N/A   Clear
8:29 PM 39.2 °F - 37.4 °F 93% 30.03 in 0.5 mi Calm Calm - N/A Fog Fog
8:53 PM 39.9 °F - 37.9 °F 93% 30.05 in 0.5 mi Calm Calm - N/A Fog Fog
9:13 PM 37.4 °F - 37.4 °F 100% 30.04 in 0.2 mi Calm Calm - N/A Fog Fog
9:53 PM 37.0 °F - 35.1 °F 93% 30.07 in 0.2 mi Calm Calm - N/A Fog Fog
10:33 PM 37.4 °F 33.8 °F 35.6 °F 93% 30.06 in 0.5 mi NNE 4.6 mph - N/A Fog Fog
10:41 PM 37.4 °F 34.9 °F 35.6 °F 93% 30.07 in 0.2 mi NE 3.5 mph - N/A Fog Fog
10:53 PM 36.0 °F - 34.0 °F 93% 30.09 in 0.2 mi Calm Calm - N/A Fog Fog
11:00 PM 35.6 °F - 33.8 °F 93% 30.07 in 0.2 mi Calm Calm - N/A Fog Fog
11:21 PM 35.6 °F 32.8 °F 33.8 °F 93% 30.08 in 0.8 mi NNW 3.5 mph - N/A   Mist
11:29 PM 35.6 °F - 33.8 °F 93% 30.08 in 2.0 mi Calm Calm - N/A   Mist
11:37 PM 33.8 °F 30.8 °F 32.0 °F 93% 30.08 in 4.0 mi North 3.5 mph - N/A   Partly Cloudy
11:53 PM 35.1 °F - 33.1 °F 92% 30.10 in 6.0 mi Calm Calm - N/A   Clear